����������;��������(kVARh)
2016-10-03 00:00;0
2016-10-03 00:15;0
2016-10-03 00:30;0,1
2016-10-03 00:45;0
2016-10-03 01:00;0
2016-10-03 01:15;0
2016-10-03 01:30;0
2016-10-03 01:45;0
2016-10-03 02:00;0
2016-10-03 02:15;0
2016-10-03 02:30;0,55
2016-10-03 02:45;1,25
2016-10-03 03:00;0
2016-10-03 03:15;0
2016-10-03 03:30;0,35
2016-10-03 03:45;0
2016-10-03 04:00;0
2016-10-03 04:15;0
2016-10-03 04:30;0
2016-10-03 04:45;0,35
2016-10-03 05:00;0
2016-10-03 05:15;0
2016-10-03 05:30;0,1
2016-10-03 05:45;0
2016-10-03 06:00;0
2016-10-03 06:15;0
2016-10-03 06:30;0
2016-10-03 06:45;0,15
2016-10-03 07:00;0
2016-10-03 07:15;0
2016-10-03 07:30;0,5
2016-10-03 07:45;15,1
2016-10-03 08:00;3
2016-10-03 08:15;2,5
2016-10-03 08:30;8,5
2016-10-03 08:45;15,2
2016-10-03 09:00;16,7
2016-10-03 09:15;25,1
2016-10-03 09:30;29,55
2016-10-03 09:45;35,05
2016-10-03 10:00;33,25
2016-10-03 10:15;35,4
2016-10-03 10:30;40
2016-10-03 10:45;48
2016-10-03 11:00;44,75
2016-10-03 11:15;37,6
2016-10-03 11:30;33,7
2016-10-03 11:45;44,3
2016-10-03 12:00;44,4
2016-10-03 12:15;40,6
2016-10-03 12:30;32,8
2016-10-03 12:45;41,2
2016-10-03 13:00;37,6
2016-10-03 13:15;39,6
2016-10-03 13:30;50,8
2016-10-03 13:45;46,8
2016-10-03 14:00;46
2016-10-03 14:15;43,8
2016-10-03 14:30;45,75
2016-10-03 14:45;39
2016-10-03 15:00;39,6
2016-10-03 15:15;42,15
2016-10-03 15:30;41
2016-10-03 15:45;36,55
2016-10-03 16:00;39,75
2016-10-03 16:15;42,3
2016-10-03 16:30;32,7
2016-10-03 16:45;33
2016-10-03 17:00;31,9
2016-10-03 17:15;23,05
2016-10-03 17:30;22,45
2016-10-03 17:45;27,25
2016-10-03 18:00;28,85
2016-10-03 18:15;25,35
2016-10-03 18:30;20,75
2016-10-03 18:45;20
2016-10-03 19:00;17,75
2016-10-03 19:15;12,55
2016-10-03 19:30;8,25
2016-10-03 19:45;7
2016-10-03 20:00;5,35
2016-10-03 20:15;12,55
2016-10-03 20:30;13,15
2016-10-03 20:45;15,4
2016-10-03 21:00;15,9
2016-10-03 21:15;16,15
2016-10-03 21:30;15,2
2016-10-03 21:45;15,2
2016-10-03 22:00;15,35
2016-10-03 22:15;14,75
2016-10-03 22:30;8,85
2016-10-03 22:45;7,25
2016-10-03 23:00;7,4
2016-10-03 23:15;4,65
2016-10-03 23:30;3,05
2016-10-03 23:45;4,25
2016-10-04 00:00;5
2016-10-04 00:15;8,05
2016-10-04 00:30;3,65
2016-10-04 00:45;1,95
2016-10-04 01:00;2,2
2016-10-04 01:15;3,4
2016-10-04 01:30;6,15
2016-10-04 01:45;6,45
2016-10-04 02:00;7,4
2016-10-04 02:15;7,75
2016-10-04 02:30;4,3
2016-10-04 02:45;1
2016-10-04 03:00;0,45
2016-10-04 03:15;1,05
2016-10-04 03:30;0,2
2016-10-04 03:45;0
2016-10-04 04:00;0
2016-10-04 04:15;0,05
2016-10-04 04:30;0,05
2016-10-04 04:45;0
2016-10-04 05:00;0
2016-10-04 05:15;0,3
2016-10-04 05:30;0
2016-10-04 05:45;0,2
2016-10-04 06:00;2,4
2016-10-04 06:15;4,05
2016-10-04 06:30;5,55
2016-10-04 06:45;1,9
2016-10-04 07:00;1
2016-10-04 07:15;5,7
2016-10-04 07:30;1,95
2016-10-04 07:45;1,6
2016-10-04 08:00;3,25
2016-10-04 08:15;16,05
2016-10-04 08:30;14,15
2016-10-04 08:45;17
2016-10-04 09:00;18,7
2016-10-04 09:15;26,55
2016-10-04 09:30;29,25
2016-10-04 09:45;32,7
2016-10-04 10:00;37,95
2016-10-04 10:15;36,8
2016-10-04 10:30;39,5
2016-10-04 10:45;41,55
2016-10-04 11:00;52,3
2016-10-04 11:15;58
2016-10-04 11:30;56,45
2016-10-04 11:45;55,2
2016-10-04 12:00;59,55
2016-10-04 12:15;57,65
2016-10-04 12:30;56,75
2016-10-04 12:45;59
2016-10-04 13:00;56,25
2016-10-04 13:15;53,9
2016-10-04 13:30;58,4
2016-10-04 13:45;60,1
2016-10-04 14:00;56,1
2016-10-04 14:15;57,35
2016-10-04 14:30;50,9
2016-10-04 14:45;47,2
2016-10-04 15:00;44,9
2016-10-04 15:15;51
2016-10-04 15:30;43,25
2016-10-04 15:45;39,95
2016-10-04 16:00;41,1
2016-10-04 16:15;43,7
2016-10-04 16:30;38,3
2016-10-04 16:45;36,7
2016-10-04 17:00;41,1
2016-10-04 17:15;32,4
2016-10-04 17:30;24,4
2016-10-04 17:45;22,3
2016-10-04 18:00;18,95
2016-10-04 18:15;12,15
2016-10-04 18:30;10,75
2016-10-04 18:45;11,6
2016-10-04 19:00;9,95
2016-10-04 19:15;3,6
2016-10-04 19:30;0,4
2016-10-04 19:45;2,05
2016-10-04 20:00;2,45
2016-10-04 20:15;1,4
2016-10-04 20:30;3,45
2016-10-04 20:45;7,55
2016-10-04 21:00;7,9
2016-10-04 21:15;10,4
2016-10-04 21:30;8,8
2016-10-04 21:45;7,1
2016-10-04 22:00;8
2016-10-04 22:15;8,95
2016-10-04 22:30;5,85
2016-10-04 22:45;5
2016-10-04 23:00;5,2
2016-10-04 23:15;5,5
2016-10-04 23:30;3,35
2016-10-04 23:45;0,95
2016-10-05 00:00;1,7
2016-10-05 00:15;1,15
2016-10-05 00:30;0,05
2016-10-05 00:45;0
2016-10-05 01:00;0
2016-10-05 01:15;0,1
2016-10-05 01:30;0
2016-10-05 01:45;0
2016-10-05 02:00;0
2016-10-05 02:15;0
2016-10-05 02:30;0
2016-10-05 02:45;0
2016-10-05 03:00;0
2016-10-05 03:15;0
2016-10-05 03:30;0
2016-10-05 03:45;0
2016-10-05 04:00;0
2016-10-05 04:15;0
2016-10-05 04:30;0
2016-10-05 04:45;0
2016-10-05 05:00;0
2016-10-05 05:15;0,05
2016-10-05 05:30;0
2016-10-05 05:45;0,35
2016-10-05 06:00;0,7
2016-10-05 06:15;1
2016-10-05 06:30;0
2016-10-05 06:45;2,4
2016-10-05 07:00;7,95
2016-10-05 07:15;10,65
2016-10-05 07:30;5,75
2016-10-05 07:45;16,35
2016-10-05 08:00;17,25
2016-10-05 08:15;19,25
2016-10-05 08:30;12,7
2016-10-05 08:45;29,6
2016-10-05 09:00;28,45
2016-10-05 09:15;25,2
2016-10-05 09:30;29,25
2016-10-05 09:45;31
2016-10-05 10:00;37,2
2016-10-05 10:15;31,1
2016-10-05 10:30;30,3
2016-10-05 10:45;37,1
2016-10-05 11:00;40,45
2016-10-05 11:15;38,85
2016-10-05 11:30;39,15
2016-10-05 11:45;43,25
2016-10-05 12:00;50,1
2016-10-05 12:15;47,4
2016-10-05 12:30;47,05
2016-10-05 12:45;51,3
2016-10-05 13:00;53,05
2016-10-05 13:15;46,9
2016-10-05 13:30;50,6
2016-10-05 13:45;52,05
2016-10-05 14:00;46,5
2016-10-05 14:15;51,4
2016-10-05 14:30;58,75
2016-10-05 14:45;41,05
2016-10-05 15:00;43,55
2016-10-05 15:15;50,5
2016-10-05 15:30;49,9
2016-10-05 15:45;39,8
2016-10-05 16:00;37,95
2016-10-05 16:15;41,25
2016-10-05 16:30;37,2
2016-10-05 16:45;30,25
2016-10-05 17:00;31,3
2016-10-05 17:15;31,05
2016-10-05 17:30;31,6
2016-10-05 17:45;31,9
2016-10-05 18:00;27,15
2016-10-05 18:15;28
2016-10-05 18:30;24,85
2016-10-05 18:45;26,5
2016-10-05 19:00;25,6
2016-10-05 19:15;21,15
2016-10-05 19:30;16,5
2016-10-05 19:45;13,95
2016-10-05 20:00;9,15
2016-10-05 20:15;7,15
2016-10-05 20:30;7,65
2016-10-05 20:45;9,95
2016-10-05 21:00;5,45
2016-10-05 21:15;8,1
2016-10-05 21:30;9,75
2016-10-05 21:45;9,35
2016-10-05 22:00;8,75
2016-10-05 22:15;7,1
2016-10-05 22:30;6,4
2016-10-05 22:45;4,75
2016-10-05 23:00;4,15
2016-10-05 23:15;2,55
2016-10-05 23:30;2,35
2016-10-05 23:45;2,8
2016-10-06 00:00;1,9
2016-10-06 00:15;0,05
2016-10-06 00:30;0,3
2016-10-06 00:45;0,15
2016-10-06 01:00;0
2016-10-06 01:15;0
2016-10-06 01:30;0
2016-10-06 01:45;0
2016-10-06 02:00;0
2016-10-06 02:15;0
2016-10-06 02:30;0
2016-10-06 02:45;0
2016-10-06 03:00;0
2016-10-06 03:15;0
2016-10-06 03:30;0
2016-10-06 03:45;0
2016-10-06 04:00;0
2016-10-06 04:15;0
2016-10-06 04:30;0
2016-10-06 04:45;0
2016-10-06 05:00;0
2016-10-06 05:15;0
2016-10-06 05:30;0,2
2016-10-06 05:45;3,7
2016-10-06 06:00;4,8
2016-10-06 06:15;3,9
2016-10-06 06:30;0,25
2016-10-06 06:45;0
2016-10-06 07:00;1,5
2016-10-06 07:15;2,75
2016-10-06 07:30;7
2016-10-06 07:45;5,7
2016-10-06 08:00;26,3
2016-10-06 08:15;14,6
2016-10-06 08:30;12,45
2016-10-06 08:45;24,85
2016-10-06 09:00;24,25
2016-10-06 09:15;17,1
2016-10-06 09:30;23,75
2016-10-06 09:45;34
2016-10-06 10:00;26,95
2016-10-06 10:15;24,55
2016-10-06 10:30;31,9
2016-10-06 10:45;44,65
2016-10-06 11:00;34,7
2016-10-06 11:15;36,2
2016-10-06 11:30;41,6
2016-10-06 11:45;45,25
2016-10-06 12:00;37,35
2016-10-06 12:15;35,55
2016-10-06 12:30;45,4
2016-10-06 12:45;41,6
2016-10-06 13:00;36,35
2016-10-06 13:15;43,85
2016-10-06 13:30;50,05
2016-10-06 13:45;46,95
2016-10-06 14:00;42,8
2016-10-06 14:15;52,55
2016-10-06 14:30;51,8
2016-10-06 14:45;53,7
2016-10-06 15:00;54,15
2016-10-06 15:15;57,3
2016-10-06 15:30;51,7
2016-10-06 15:45;47,9
2016-10-06 16:00;56,25
2016-10-06 16:15;46,95
2016-10-06 16:30;41,85
2016-10-06 16:45;26,65
2016-10-06 17:00;30,9
2016-10-06 17:15;26,3
2016-10-06 17:30;25,75
2016-10-06 17:45;25,3
2016-10-06 18:00;27,7
2016-10-06 18:15;18,9
2016-10-06 18:30;20,1
2016-10-06 18:45;20,2
2016-10-06 19:00;18,9
2016-10-06 19:15;15,45
2016-10-06 19:30;13,75
2016-10-06 19:45;9,75
2016-10-06 20:00;5,15
2016-10-06 20:15;4,85
2016-10-06 20:30;4,55
2016-10-06 20:45;5,25
2016-10-06 21:00;4,4
2016-10-06 21:15;6,3
2016-10-06 21:30;4,15
2016-10-06 21:45;4,5
2016-10-06 22:00;3,65
2016-10-06 22:15;5,65
2016-10-06 22:30;6,4
2016-10-06 22:45;10,8
2016-10-06 23:00;9,85
2016-10-06 23:15;8,95
2016-10-06 23:30;8,85
2016-10-06 23:45;8,45
2016-10-07 00:00;5,9
2016-10-07 00:15;0,9
2016-10-07 00:30;0,1
2016-10-07 00:45;0,35
2016-10-07 01:00;0
2016-10-07 01:15;0
2016-10-07 01:30;0
2016-10-07 01:45;0
2016-10-07 02:00;0
2016-10-07 02:15;0
2016-10-07 02:30;0
2016-10-07 02:45;0
2016-10-07 03:00;0
2016-10-07 03:15;0
2016-10-07 03:30;0
2016-10-07 03:45;0
2016-10-07 04:00;0
2016-10-07 04:15;0
2016-10-07 04:30;0
2016-10-07 04:45;0
2016-10-07 05:00;0
2016-10-07 05:15;0
2016-10-07 05:30;0
2016-10-07 05:45;0
2016-10-07 06:00;0,5
2016-10-07 06:15;0,4
2016-10-07 06:30;0
2016-10-07 06:45;0
2016-10-07 07:00;0,05
2016-10-07 07:15;0,45
2016-10-07 07:30;0,35
2016-10-07 07:45;17,35
2016-10-07 08:00;13,95
2016-10-07 08:15;15,15
2016-10-07 08:30;10,25
2016-10-07 08:45;33,55
2016-10-07 09:00;28,2
2016-10-07 09:15;20,35
2016-10-07 09:30;28,05
2016-10-07 09:45;30,6
2016-10-07 10:00;27,9
2016-10-07 10:15;22,65
2016-10-07 10:30;30,75
2016-10-07 10:45;36,3
2016-10-07 11:00;26,8
2016-10-07 11:15;34,5
2016-10-07 11:30;44,5
2016-10-07 11:45;47,15
2016-10-07 12:00;37,1
2016-10-07 12:15;39,15
2016-10-07 12:30;49,65
2016-10-07 12:45;46,85
2016-10-07 13:00;37,9
2016-10-07 13:15;39,55
2016-10-07 13:30;43,7
2016-10-07 13:45;41,1
2016-10-07 14:00;35,75
2016-10-07 14:15;38,9
2016-10-07 14:30;45,7
2016-10-07 14:45;37,1
2016-10-07 15:00;34,05
2016-10-07 15:15;42,05
2016-10-07 15:30;33,65
2016-10-07 15:45;31,85
2016-10-07 16:00;30,6
2016-10-07 16:15;32,5
2016-10-07 16:30;29,7
2016-10-07 16:45;23,5
2016-10-07 17:00;22,3
2016-10-07 17:15;28,2
2016-10-07 17:30;24,8
2016-10-07 17:45;19,5
2016-10-07 18:00;19,3
2016-10-07 18:15;13,7
2016-10-07 18:30;13,1
2016-10-07 18:45;14,4
2016-10-07 19:00;10,5
2016-10-07 19:15;3,8
2016-10-07 19:30;9,75
2016-10-07 19:45;11,35
2016-10-07 20:00;9,05
2016-10-07 20:15;8,95
2016-10-07 20:30;9,6
2016-10-07 20:45;6,2
2016-10-07 21:00;5,45
2016-10-07 21:15;6,85
2016-10-07 21:30;6,4
2016-10-07 21:45;7,45
2016-10-07 22:00;5,35
2016-10-07 22:15;3,8
2016-10-07 22:30;4,05
2016-10-07 22:45;5,05
2016-10-07 23:00;6,3
2016-10-07 23:15;7,55
2016-10-07 23:30;8,15
2016-10-07 23:45;7,7
2016-10-08 00:00;1,6
2016-10-08 00:15;3
2016-10-08 00:30;2,5
2016-10-08 00:45;5,25
2016-10-08 01:00;3,05
2016-10-08 01:15;0,1
2016-10-08 01:30;0,05
2016-10-08 01:45;0
2016-10-08 02:00;0
2016-10-08 02:15;0
2016-10-08 02:30;0
2016-10-08 02:45;0
2016-10-08 03:00;0
2016-10-08 03:15;0,05
2016-10-08 03:30;0
2016-10-08 03:45;0
2016-10-08 04:00;0
2016-10-08 04:15;0
2016-10-08 04:30;0
2016-10-08 04:45;0
2016-10-08 05:00;0
2016-10-08 05:15;0
2016-10-08 05:30;0
2016-10-08 05:45;0
2016-10-08 06:00;0
2016-10-08 06:15;0
2016-10-08 06:30;0
2016-10-08 06:45;0
2016-10-08 07:00;0
2016-10-08 07:15;0
2016-10-08 07:30;0
2016-10-08 07:45;0,1
2016-10-08 08:00;0
2016-10-08 08:15;0
2016-10-08 08:30;0
2016-10-08 08:45;0
2016-10-08 09:00;0,05
2016-10-08 09:15;0
2016-10-08 09:30;2,1
2016-10-08 09:45;2,55
2016-10-08 10:00;0
2016-10-08 10:15;0
2016-10-08 10:30;0
2016-10-08 10:45;0
2016-10-08 11:00;0,9
2016-10-08 11:15;3,6
2016-10-08 11:30;4,8
2016-10-08 11:45;2,7
2016-10-08 12:00;2,3
2016-10-08 12:15;2,7
2016-10-08 12:30;2,1
2016-10-08 12:45;2,85
2016-10-08 13:00;1,45
2016-10-08 13:15;1,6
2016-10-08 13:30;2,95
2016-10-08 13:45;3
2016-10-08 14:00;3,1
2016-10-08 14:15;1,55
2016-10-08 14:30;2,65
2016-10-08 14:45;2,55
2016-10-08 15:00;2,7
2016-10-08 15:15;4,3
2016-10-08 15:30;3,8
2016-10-08 15:45;3,95
2016-10-08 16:00;3,9
2016-10-08 16:15;4,05
2016-10-08 16:30;4,85
2016-10-08 16:45;6,35
2016-10-08 17:00;5
2016-10-08 17:15;7,45
2016-10-08 17:30;15,1
2016-10-08 17:45;16,75
2016-10-08 18:00;13,85
2016-10-08 18:15;8,3
2016-10-08 18:30;9,45
2016-10-08 18:45;10,25
2016-10-08 19:00;8,3
2016-10-08 19:15;6,55
2016-10-08 19:30;5,5
2016-10-08 19:45;4,2
2016-10-08 20:00;8,2
2016-10-08 20:15;9,7
2016-10-08 20:30;6,8
2016-10-08 20:45;7,3
2016-10-08 21:00;8,6
2016-10-08 21:15;7,05
2016-10-08 21:30;6,95
2016-10-08 21:45;9,4
2016-10-08 22:00;9,95
2016-10-08 22:15;10
2016-10-08 22:30;9,8
2016-10-08 22:45;7,85
2016-10-08 23:00;7,3
2016-10-08 23:15;3,75
2016-10-08 23:30;2,1
2016-10-08 23:45;0,5
2016-10-09 00:00;1,25
2016-10-09 00:15;1,65
2016-10-09 00:30;3,9
2016-10-09 00:45;3,45
2016-10-09 01:00;5,1
2016-10-09 01:15;4,35
2016-10-09 01:30;4,15
2016-10-09 01:45;2,6
2016-10-09 02:00;0,6
2016-10-09 02:15;0,05
2016-10-09 02:30;0,6
2016-10-09 02:45;0,05
2016-10-09 03:00;0,4
2016-10-09 03:15;0,4
2016-10-09 03:30;0,4
2016-10-09 03:45;0,45
2016-10-09 04:00;0,6
2016-10-09 04:15;1,55
2016-10-09 04:30;0,9
2016-10-09 04:45;0,9
2016-10-09 05:00;1,1
2016-10-09 05:15;1,5
2016-10-09 05:30;1,05
2016-10-09 05:45;1,8
2016-10-09 06:00;1,95
2016-10-09 06:15;2,1
2016-10-09 06:30;2,7
2016-10-09 06:45;1,25
2016-10-09 07:00;1,55
2016-10-09 07:15;2,45
2016-10-09 07:30;2,35
2016-10-09 07:45;1,95
2016-10-09 08:00;1,95
2016-10-09 08:15;2,7
2016-10-09 08:30;0,8
2016-10-09 08:45;1,15
2016-10-09 09:00;0,5
2016-10-09 09:15;2,45
2016-10-09 09:30;7,1
2016-10-09 09:45;6,65
2016-10-09 10:00;7,85
2016-10-09 10:15;1,95
2016-10-09 10:30;1,35
2016-10-09 10:45;0,85
2016-10-09 11:00;2,75
2016-10-09 11:15;3,6
2016-10-09 11:30;6,6
2016-10-09 11:45;7,7
2016-10-09 12:00;5,3
2016-10-09 12:15;6,5
2016-10-09 12:30;4,3
2016-10-09 12:45;3,85
2016-10-09 13:00;5,1
2016-10-09 13:15;4,7
2016-10-09 13:30;4,7
2016-10-09 13:45;6,2
2016-10-09 14:00;5,95
2016-10-09 14:15;4,35
2016-10-09 14:30;7,2
2016-10-09 14:45;5,3
2016-10-09 15:00;7
2016-10-09 15:15;6,85
2016-10-09 15:30;9,9
2016-10-09 15:45;12,7
2016-10-09 16:00;13,35
2016-10-09 16:15;11,95
2016-10-09 16:30;11,1
2016-10-09 16:45;9,35
2016-10-09 17:00;9,25
2016-10-09 17:15;9,15
2016-10-09 17:30;8,15
2016-10-09 17:45;8,9
2016-10-09 18:00;7,75
2016-10-09 18:15;8,95
2016-10-09 18:30;8,45
2016-10-09 18:45;7,35
2016-10-09 19:00;7,2
2016-10-09 19:15;7,3
2016-10-09 19:30;8,55
2016-10-09 19:45;9,75
2016-10-09 20:00;10,55
2016-10-09 20:15;8,85
2016-10-09 20:30;9,35
2016-10-09 20:45;10,35
2016-10-09 21:00;9,4
2016-10-09 21:15;10,2
2016-10-09 21:30;10,4
2016-10-09 21:45;6,4
2016-10-09 22:00;4,5
2016-10-09 22:15;5,4
2016-10-09 22:30;6,8
2016-10-09 22:45;9,4
2016-10-09 23:00;9,3
2016-10-09 23:15;2,7
2016-10-09 23:30;2,9
2016-10-09 23:45;0,5

